Location: Newark
(37.8333°N, 119.5000°W)
Time: 22:51:56
(UTC+00:00)

Tiros 1 despin weight - Pass Details

Date: 26 August 2019
Orbit: 594 x 642 km, 48.2° (Epoch: 19 September)

Event Time Altitude Azimuth Distance (km) Brightness Sun altitude
Rises 11:11:28 0° 305° (NW) 2,867 - -24.2°
Reaches altitude 10° 11:13:48 10° 310° (NW) 1,969 - -23.8°
Exits shadow 11:15:40 24° 319° (NW) 1,297 ? -23.5°
Maximum altitude 11:18:14 54° 28° (NNE) 751 ? -23.1°
Drops below altitude 10° 11:22:44 10° 106° (ESE) 1,993 ? -22.4°
Sets 11:25:07 0° 111° (ESE) 2,905 ? -22.0°
